This is the latest recevied weather packets stored in our database for station/object VK3AFQ-13. If no packets are shown the sender has not sent any weather packets the latest 10 day(s).
| Time | Temp. | Humidity | Pressure | Rain* | Wind** | Luminosity | Snow |
|---|---|---|---|---|---|---|---|
| 1778160664 | 10.56° C | 75% | 1025.8 hPa | - | - | - | - |
| 1778159764 | 10.56° C | 75% | 1026 hPa | - | - | - | - |
| 1778158862 | 11.11° C | 74% | 1025.9 hPa | - | - | - | - |
| 1778157964 | 11.11° C | 74% | 1026 hPa | - | - | - | - |
| 1778157064 | 11.11° C | 74% | 1026.2 hPa | - | - | - | - |
| 1778156164 | 11.11° C | 74% | 1026.3 hPa | - | - | - | - |
| 1778155262 | 11.11° C | 74% | 1026.2 hPa | - | - | - | - |
| 1778154363 | 11.11° C | 73% | 1026.2 hPa | - | - | - | - |
| 1778153464 | 10.56° C | 74% | 1025.9 hPa | - | - | - | - |
| 1778152564 | 10.56° C | 74% | 1026 hPa | - | - | - | - |
| 1778151662 | 10.56° C | 74% | 1026.1 hPa | - | - | - | - |
| 1778150763 | 10.56° C | 73% | 1025.9 hPa | - | - | - | - |
| 1778149864 | 11.11° C | 72% | 1026 hPa | - | - | - | - |
| 1778148964 | 11.11° C | 71% | 1026 hPa | - | - | - | - |
| 1778148062 | 11.11° C | 70% | 1025.7 hPa | - | - | - | - |
| 1778147164 | 11.67° C | 70% | 1025.7 hPa | - | - | - | - |
| 1778146264 | 11.67° C | 70% | 1025.8 hPa | - | - | - | - |
| 1778145364 | 11.67° C | 70% | 1025.6 hPa | - | - | - | - |
| 1778144462 | 11.11° C | 70% | 1025.6 hPa | - | - | - | - |
| 1778143564 | 11.11° C | 70% | 1025.4 hPa | - | - | - | - |
| 1778142664 | 11.11° C | 70% | 1025.3 hPa | - | - | - | - |
| 1778141764 | 11.67° C | 68% | 1025.2 hPa | - | - | - | - |
| 1778140862 | 11.67° C | 67% | 1024.9 hPa | - | - | - | - |
| 1778139964 | 12.22° C | 66% | 1025.1 hPa | - | - | - | - |
| 1778139063 | 12.22° C | 64% | 1025 hPa | - | - | - | - |
* Rain since midnight (hover to see other rain measurements)
** Current wind speed in m/s (hover to see current wind gust speed)